2018-046F

Last updated on Thu Aug 09 2018 00:15:04 GMT+0000 (Coordinated Universal Time)

1 43559U 18046F 18212.00055015 .00001988 00000-0 85067-4 0 9991 2 43559 51.6466 163.2945 0008184 6.3467 35.6537 15.27765119 1984
UTC large
Height (km)
Speed (km/s)
/
Latitude / Longitude
Inclination (degrees)
Orbital Period (minutes)
Azimuth
Elevation
Range (km)
Doppler Factor

Next 0 passes for location: London (51.5072 / 0.1276)

Sorry there are no passes over London.
2018-046F